Regional Weather Roundup
Issued by NWS

Home | Current Version | Previous Version | Graphics & Text | Print | Product List | Glossary On
Versions: 1 2 3 4 5 6 7 8 9 10 11 12 13 14 15 16 17 18 19 20 21 22 23 24 25 26 27 28 29 30 31 32 33 34 35 36 37 38 39 40 41 42 43 44 45 46 47 48 49 50
000
ASUS43 KOAX 252202
RWRNE

WEATHER ROUNDUP FOR NEBRASKA
NATIONAL WEATHER SERVICE OMAHA NE
400 PM CST TUE NOV 25 2014

NOTES: SATELLITE DATA IS BEING USED TO AUGMENT CLOUD COVER ABOVE
       12000 FEET.
       "FAIR" INDICATES FEW OR NO CLOUDS BELOW 12,000 FEET WITH NO
       SIGNIFICANT WEATHER AND/OR OBSTRUCTIONS TO VISIBILITY.

  * THESE STATIONS DO NOT REPORT WEATHER SUCH AS RAIN...SNOW OR FOG.

NEZ001>004-019>022-054>056-252300-
NEBRASKA PANHANDLE

CITY           SKY/WX    TMP DP  RH WIND       PRES   REMARKS
SCOTTSBLUFF    LGT RAIN  38  32  79 NW20G30   29.87R WCI  28
ALLIANCE       CLOUDY    42  27  55 NW24G30   29.82R
CHADRON        CLOUDY    50  32  50 W20       29.82R
SIDNEY         CLOUDY    42  28  57 NW30G40   29.87R
$$

NEZ057>060-069>072-079>082-252300-
SOUTHWEST NEBRASKA

CITY           SKY/WX    TMP DP  RH WIND       PRES   REMARKS
NORTH PLATTE   CLOUDY    44  25  47 SW10      29.82F
IMPERIAL       CLOUDY    50  17  27 W13       29.82S
MCCOOK         CLOUDY    49  20  31 W8        29.84F
$$

NEZ005>010-023>029-035>040-094-252300-
NORTH CENTRAL NEBRASKA

CITY           SKY/WX    TMP DP  RH WIND       PRES   REMARKS
VALENTINE      CLOUDY    44  22  41 W14       29.76S
BROKEN BOW     CLOUDY    43  26  51 SW21G29   29.83F
ORD            CLOUDY    44  23  43 W18G35    29.83F
$$

NEZ041-046>049-061>064-073>077-083>087-252300-
SOUTH CENTRAL NEBRASKA

CITY           SKY/WX    TMP DP  RH WIND       PRES   REMARKS
GRAND ISLAND   CLOUDY    44  23  43 S12       29.90S
HASTINGS       CLOUDY    46  20  35 SW15      29.89S
KEARNEY *      CLOUDY    45  18  33 S15       29.88F
$$

NEZ011>018-030>034-042>045-252300-
NORTHEAST NEBRASKA

CITY           SKY/WX    TMP DP  RH WIND       PRES   REMARKS
NORFOLK        CLOUDY    44  25  47 S14       29.86F
COLUMBUS *     CLOUDY    45  25  45 S10       29.92F
TEKAMAH        MOCLDY    43  26  51 S12       29.96F
$$

NEZ050>053-065>068-078-088>093-252300-
SOUTHEAST NEBRASKA

CITY           SKY/WX    TMP DP  RH WIND       PRES   REMARKS
LINCOLN        CLOUDY    47  23  38 SW12      29.96F
OMAHA EPPLEY   MOCLDY    42  24  49 SE14      29.98F
FALLS CITY     PTCLDY    44  23  43 S10       30.03F
$$

NEZ044-045-051>053-067-252300-
OMAHA AREA

CITY           SKY/WX    TMP DP  RH WIND       PRES   REMARKS
OMAHA EPPLEY   MOCLDY    42  24  49 SE14      29.98F
OFFUTT AFB     MOCLDY    43  26  51 SE9       29.97F
$$


USA.gov is the U.S. government's official web portal to all federal, state and local government web resources and services.